User: anonymous   Login
Location: Unspecified
(0.0000°N, 0.0000°E)
Time: 23:31:55
(UTC+00:00)
Language:

USA 157 - Orbit

View from above orbital plane
View from above orbital plane
View from above satellite
View from above satellite

Ground track
Ground track

The orbit data is extracted from the following two-line orbital elements,

1 26715U 01009A   18117.19008016 0.00000000  00000-0  00000-0 0    07
2 26715   8.5736  34.3621 0008766 107.6038 252.5102  1.00270000    00
Epoch (UTC): 27 April 2018 04:33:42
Eccentricity: 0.0008766
inclination: 8.5736°
perigee height: 35750 km
apogee height: 35823 km
right ascension of ascending node: 34.3621°
argument of perigee: 107.6038°
revolutions per day: 1.00270000
mean anomaly at epoch: 252.5102°
orbit number at epoch: 0

The dashed part of the orbit path shows where the satellite is in the earth's shadow,  

DLR